Starlink 33594

operational
NORAD ID: 62770 Int'l Des: 2025-015 Owner: SPXS Country: US Constellation: starlink
LEOCIRCULAR

Starlink 33594について

説明を読み込み中...

リアルタイム位置

3D地球を読み込み中...

次回通過

高度履歴

Altitude vs Time

uPlot chart will show altitude changes over time

軌道要素

1 62770U 25015N 26035.49573758 .00013783 00000-0 47670-3 0 9998
2 62770 53.1585 116.3089 0001264 80.2937 279.8206 15.30192771 59409
Epoch: Feb 4, 2026 • Age: 25 hours

現在のステータス

高度 480.0 km
速度 7.63 km/s
衛星直下点 49.67°N, 162.32°W
打ち上げ日 Jan 21, 2025
運用期間 1 years
タイプ internet

技術仕様

分類 Payload
質量 575.00 kg
乾燥質量 530.00 kg
総質量 575.00 kg
長さ 0.30 m
直径 4.10 m
スパン 29.00 m
形状 Box + pan
製造者 SPXS
バスタイプ Starlink V2MO
フェーズステータス In Orbit
所有者/国 SPXS/US

大規模コンステレーション

Loading constellations...